Location: Madrid
(40.4167°N, 3.7036°W)
Time: 13:52:40
(UTC+00:00)

ISS - Pass Details

Date: 12 July 2024
Orbit: 410 x 424 km, 51.6° (Epoch: 14 July)

Event Time Altitude Azimuth Distance (km) Brightness Sun altitude
Rises 20:56:56 0° 255° (WSW) 2,332 0.5 -11.8°
Reaches altitude 10° 20:59:08 10° 265° (W) 1,472 -0.4 -12.1°
Maximum altitude 21:02:09 33° 332° (NNW) 718 -1.8 -12.5°
Drops below altitude 10° 21:05:12 10° 38° (NE) 1,479 -0.9 -13.0°
Sets 21:07:26 0° 49° (NE) 2,344 0.0 -13.3°
